DELTA 1 DEB

Satellite information

Favourite Embed

Satellite Type and Status

DEBRISIN ORBIT

Key statistics

Satellite DELTA 1 DEB at a glance.

Uptime

18286

Days in orbit

Revolutions

≈ 12.7

Per day

Orbit

SSO

Sun Synchronous Orbit

Inclination

99.6

Latest

Satellite identification and parameters

Extended collection of information and parameters for DELTA 1 DEB.

Object identification

Identified? True

Debris? True

Object name: DELTA 1 DEB

International designator: 1975-052LR

Object number (NORAD): 42632

Object ID (CCSDS): 42632

Country: UNITED STATES OF AMERICA (US)

Current information (Y/N): Y

RCS size: SMALL

Orbital parameters

Period: 113.388 minutes

Inclination: 99.5925 deg

SMA: 7760.155 km

Apoapsis: 1691.935 km

Periapsis: 1072.105 km

RAAN: 300.1863 deg

Eccentricy: 0.0399367

Argument of periapsis: 70.5006 deg

Mean anomaly: 293.8766 deg

Mean motion: 12.69980797 rev/day

Mean motion (dot): -0.00000093 rev/day2

B* drag term: -0.00022443 1/REarth

Two-line elements (TLE)

Creation date: July 3, 2025, 3:40 a.m.

Reference frame: TEME

Reference center: EARTH

Epoch: July 2, 2025, 6:10 p.m. UTC

TLE line 0: 0 DELTA 1 DEB

TLE line 1: 1 42632U 75052LR 25183.75719414 -.00000093 00000-0 -22443-3 0 9995

TLE line 2: 2 42632 99.5925 300.1863 0399367 70.5006 293.8766 12.69980797495966

Live tracking on map

Real-time ground track for satellite DELTA 1 DEB.

In-orbit conjunctions

A list of the most updated potential collisions computed for object DELTA 1 DEB.

Target Orbit TCA Probability of collision Miss distance Type
NIMBUS 6 SSO 2025-01-05 15:31:04 0.001147045 41.0 (m) PAYLOAD

Associated space launch

Experimental meteorological satellite

DELTA 1 DEB was lifted into orbit during the mission ‘Delta 2910 | Nimbus 6’, on board a Delta 2910 space rocket.

The launch took place on June 12, 1975, 8:12 a.m. from Space Launch Complex 2W.

For more information about the launch, click the button.

Launch to space Delta 2910 | Nimbus 6
Delta 2910 | Nimbus 6

Agency: N/A

Status: Launch Successful

Launch date: June 12, 1975, 8:12 a.m. UTC

Rocket: Delta 2910

Launch pad: Space Launch Complex 2W

Location: Vandenberg SFB, CA, USA

...

Latest news about this satellite

There are no fresh news available about this satellite. Check back as we update our databases every day.


Newsletter sign-up

Weekly statistics, charts and insights to help you stay on top of the space industry.